Theta_e
351 353 353 353 354 354 353 355 354 354 353 353 352 352 352 353 352 353 358 357 359 359 361 363 364 364 363 365 364 366 368 367 368 369 369 368 369 369 368 368 366 364 366 365 364 366 367 366 366 366 367 364 362 361 359 363 366 364 364 360 357 359 358 356 352 353 359 364 358 358 362 365 363 370 367 364 366 369 367 372 376 371 371 373 373
351 353 353 353 353 353 353 353 354 354 352 352 352 351 352 352 353 354 353 356 358 357 360 360 362 363 363 364 366 366 369 369 367 367 367 367 367 365 366 368 367 365 366 365 366 364 366 367 365 365 369 365 362 360 360 358 359 358 361 360 359 360 362 357 355 354 354 360 362 366 363 366 361 371 367 365 365 369 368 370 368 368 370 373 371
350 353 353 353 353 353 352 353 353 353 351 351 350 350 351 351 353 352 349 351 356 356 357 357 361 363 362 363 366 366 368 367 367 367 366 367 366 365 364 365 365 364 363 364 364 366 364 365 363 364 364 363 364 361 360 361 360 361 360 361 362 361 364 362 358 355 356 357 363 360 362 366 364 365 368 367 369 370 371 367 365 365 368 370 368
349 351 352 351 352 352 353 352 351 351 350 350 350 350 350 350 352 350 350 349 351 355 357 357 360 362 361 362 365 365 366 365 366 366 366 367 366 366 367 366 365 364 362 363 363 364 363 364 362 363 364 363 363 363 363 364 363 363 362 364 365 363 365 365 363 359 358 356 361 363 363 363 364 368 368 369 367 368 368 369 369 366 366 365 366
348 349 350 350 350 351 351 351 350 350 349 349 350 350 350 350 351 350 349 349 350 352 356 358 359 360 357 359 361 363 363 365 365 364 365 366 366 365 365 367 366 365 364 365 364 365 364 362 362 364 365 362 362 362 362 364 363 362 361 363 364 364 365 365 365 364 361 359 359 365 368 366 367 368 369 364 365 368 372 371 367 368 369 364 363
347 348 349 348 349 350 351 351 350 350 350 349 349 350 350 350 350 350 349 349 350 350 353 354 356 359 359 359 360 362 363 365 366 365 363 363 365 364 365 366 364 365 365 364 365 366 363 364 363 364 364 362 361 361 364 364 364 362 362 363 364 364 365 366 366 365 363 361 362 360 365 363 364 366 368 367 363 362 364 368 370 370 370 365 363
348 347 348 347 349 349 350 350 351 350 351 350 350 350 350 349 349 349 350 349 349 349 351 354 356 357 359 359 358 360 362 362 364 366 364 364 364 364 362 363 364 364 364 363 363 364 364 363 364 364 364 364 362 361 364 364 362 362 364 364 365 364 363 363 365 364 363 362 361 362 361 364 365 360 366 369 366 365 361 361 362 367 369 368 365
348 348 348 348 349 348 350 351 352 352 352 353 352 351 350 350 350 351 351 350 348 349 349 351 354 355 356 357 358 361 362 361 364 365 364 363 363 363 363 361 361 362 363 363 362 362 363 363 362 363 364 366 365 364 365 363 365 363 364 365 365 364 361 361 363 362 361 360 359 356 358 361 363 366 367 368 366 366 366 361 358 360 363 367 370
348 347 348 348 350 351 352 352 353 354 354 354 353 352 351 351 351 351 352 351 350 349 349 350 351 353 354 356 357 358 357 358 359 361 362 362 363 360 361 361 360 360 361 360 362 363 363 362 363 362 366 366 363 363 363 364 364 364 365 367 366 364 363 362 362 361 360 359 358 361 360 359 361 362 360 360 359 357 363 365 362 365 365 362 365
347 346 346 349 351 353 354 354 354 355 354 355 356 354 353 353 351 351 351 351 352 352 351 350 349 350 351 354 355 355 355 356 352 342 347 360 361 358 359 361 361 360 361 361 360 361 361 362 361 365 363 363 359 355 350 352 355 359 364 368 366 365 363 362 361 361 360 358 356 357 355 354 354 359 359 360 363 366 364 366 362 363 365 363 364
351 347 347 350 351 353 356 355 355 355 355 356 356 355 354 353 353 353 352 351 351 353 352 350 348 348 348 350 351 351 352 351 340 333 334 339 355 360 359 361 362 361 359 361 360 358 360 362 363 364 364 361 361 351 349 347 348 348 351 357 364 366 363 361 360 361 359 357 357 358 355 355 357 358 359 358 360 361 361 364 362 362 360 356 354
354 353 351 354 354 355 354 355 355 355 356 355 355 356 355 354 354 354 352 350 353 351 349 349 350 349 348 348 348 349 350 341 332 330 331 331 339 356 357 357 357 358 359 357 359 359 359 359 361 361 364 365 365 367 357 348 344 345 345 347 351 354 355 362 362 361 362 358 357 357 356 356 358 361 358 358 361 362 364 364 363 360 359 357 357
350 353 358 355 355 355 356 355 355 355 356 356 357 357 356 355 354 352 350 352 351 351 351 349 350 350 349 349 348 348 349 337 329 328 329 329 329 341 352 354 354 355 356 358 358 359 361 360 360 362 361 362 363 365 368 367 349 341 343 345 347 346 341 341 347 362 363 362 360 358 359 360 360 362 363 363 367 362 362 361 363 362 361 358 358
348 349 352 356 359 359 357 356 355 356 357 357 357 356 355 354 353 352 352 353 353 352 351 351 350 351 350 350 350 349 349 338 327 325 325 325 327 332 352 351 354 354 356 357 358 359 361 361 361 362 364 365 365 364 365 367 368 366 361 360 361 359 347 340 339 341 351 360 362 361 364 367 362 364 368 369 365 362 361 359 363 360 359 358 364
345 348 350 352 354 355 355 356 356 356 357 357 357 356 355 355 354 353 352 352 352 352 350 350 350 351 350 349 350 349 348 333 325 323 322 322 324 328 349 351 352 355 357 359 360 359 361 362 363 361 363 365 365 364 364 365 366 365 365 364 364 365 365 362 359 359 358 358 361 363 365 366 368 369 370 371 368 368 366 365 364 364 363 364 363
342 346 348 349 351 353 353 354 355 357 357 357 356 356 356 357 356 356 355 353 354 353 353 352 351 351 350 350 348 348 349 330 324 322 321 321 323 339 348 352 353 353 356 359 360 362 362 362 363 362 362 363 359 346 354 365 365 364 363 363 363 364 363 362 349 352 363 364 364 362 362 363 353 368 370 366 367 370 368 366 364 363 360 357 356
337 339 342 343 343 344 348 352 354 355 356 356 356 355 356 357 358 358 355 353 352 352 353 352 354 352 352 351 350 349 350 337 322 320 319 320 324 345 349 351 353 353 354 358 360 361 362 363 363 361 361 363 352 335 337 351 361 361 362 361 361 360 360 364 345 338 338 336 336 337 336 335 334 331 330 333 355 360 364 358 356 361 357 355 356
335 336 337 339 341 342 344 344 347 351 355 354 355 355 356 356 356 357 355 354 352 353 354 354 354 354 353 352 351 350 350 342 322 318 317 318 328 346 351 351 353 354 355 357 360 361 362 358 363 363 362 362 342 331 331 347 359 360 360 359 359 359 360 361 360 357 334 331 332 333 333 333 333 333 333 331 330 344 359 355 358 357 356 357 353
330 332 334 336 339 342 343 344 345 345 347 351 354 353 355 354 356 357 355 355 354 355 355 354 354 355 354 353 347 349 351 344 323 318 316 316 327 348 351 352 352 353 353 355 359 360 361 358 357 355 358 354 335 329 327 343 358 360 361 360 357 357 359 362 361 360 361 358 358 355 352 344 348 353 355 339 336 345 358 361 361 359 357 355 356
329 332 335 337 339 341 343 344 345 345 346 348 352 354 355 355 355 356 356 356 355 355 354 355 354 354 355 354 353 352 352 353 349 317 316 314 317 346 352 352 351 352 353 353 355 358 359 361 356 335 332 332 329 325 323 326 355 360 361 358 358 357 361 362 363 363 364 362 363 363 363 365 364 362 362 361 351 350 355 360 362 362 360 358 357
330 331 333 334 336 338 342 343 344 346 347 348 350 353 355 354 355 356 355 356 356 355 355 355 354 355 355 356 355 355 354 354 352 319 315 313 314 324 350 352 352 353 353 354 354 354 356 358 359 341 326 325 324 321 319 319 332 359 361 360 360 361 359 363 363 362 362 363 363 362 363 364 365 364 362 364 360 357 354 357 362 364 363 360 356
329 331 332 332 334 337 341 346 348 349 348 350 349 350 355 357 357 356 356 356 356 356 357 356 355 355 356 356 357 356 354 344 356 327 316 312 312 313 342 350 351 353 353 354 354 353 354 356 360 346 326 323 321 319 316 318 320 350 361 336 335 334 361 363 364 364 362 361 359 359 360 360 361 361 360 360 360 360 360 360 361 365 367 367 363
329 330 331 332 334 336 339 342 346 349 349 348 347 347 351 355 357 360 359 358 357 356 356 357 357 356 357 357 358 359 359 357 334 349 320 312 311 311 320 337 332 354 352 352 353 353 355 357 359 345 326 319 317 317 317 316 320 337 328 327 327 330 343 357 359 360 360 358 358 359 359 360 359 359 360 360 361 364 362 364 366 366 367 368 369
328 329 330 331 333 335 337 340 342 345 348 349 347 346 348 351 355 357 353 351 351 352 354 357 357 355 355 355 356 358 360 360 342 329 338 313 312 310 312 318 327 347 353 352 354 355 355 357 355 332 322 315 313 315 317 318 333 322 319 322 326 332 350 355 355 358 357 355 355 355 357 359 360 360 360 363 362 367 365 366 368 369 369 368 369
326 328 329 330 332 334 335 337 339 341 344 348 346 345 346 347 346 350 351 349 349 349 352 355 355 354 354 354 355 357 359 360 362 346 326 322 313 311 311 313 316 322 348 353 355 355 341 331 329 324 321 316 314 315 317 317 316 320 319 320 333 347 351 353 355 357 354 353 352 355 357 360 361 363 366 368 368 368 368 366 368 369 369 369 367
325 326 328 330 331 332 332 333 335 338 341 349 347 347 347 349 348 350 349 349 350 351 352 353 354 355 355 355 355 357 359 361 361 363 341 331 322 314 313 313 316 318 330 346 337 334 330 325 324 323 322 325 336 341 345 345 322 318 321 327 342 347 351 353 355 354 353 354 353 354 357 361 362 365 368 369 366 363 363 363 363 362 361 359 359
324 325 327 329 331 331 330 330 332 336 339 341 345 352 352 351 352 349 350 349 351 352 353 353 353 354 353 354 356 358 358 360 361 361 362 357 350 338 324 324 316 317 327 340 337 345 344 339 344 333 335 332 333 334 337 339 340 336 336 339 344 348 352 354 355 356 355 355 355 357 359 361 365 366 365 363 361 362 365 361 360 359 360 360 357
323 323 324 327 328 328 329 331 333 335 338 340 342 344 352 354 353 352 351 351 351 352 353 353 353 354 354 355 357 357 357 360 360 360 360 360 359 353 343 338 336 334 336 340 346 349 352 340 339 349 350 350 347 348 350 352 351 348 348 346 347 348 350 348 351 358 359 360 359 360 360 362 361 363 362 361 360 360 364 359 358 358 356 358 355
323 324 324 325 326 328 329 331 333 334 337 340 343 347 347 348 352 354 358 358 356 354 355 354 355 357 358 357 357 356 358 358 360 340 362 339 354 358 352 347 345 343 334 328 346 350 352 353 353 352 352 349 349 351 351 352 352 354 354 353 352 352 352 352 352 352 355 356 357 357 358 360 361 361 360 359 359 359 362 358 359 359 359 356 352
321 321 323 325 326 327 329 330 332 335 336 337 339 341 338 326 334 345 345 337 330 324 325 349 356 358 358 358 360 357 359 361 340 328 323 321 319 323 328 327 325 337 330 320 337 348 350 350 351 351 351 351 350 351 351 352 353 353 355 343 352 352 352 352 353 354 357 356 358 359 359 359 358 359 356 354 356 356 357 348 356 357 354 352 351
320 320 321 323 325 327 327 328 330 333 335 336 338 338 341 344 315 312 321 327 323 317 312 312 315 323 345 355 354 334 330 325 324 321 314 314 314 313 313 314 313 315 317 334 338 343 348 348 348 350 350 352 351 351 352 352 352 353 354 354 353 351 349 352 354 353 354 356 357 358 359 358 356 357 354 355 355 355 356 356 355 357 354 352 349
319 319 320 322 324 326 327 328 330 331 333 336 337 338 339 341 344 324 313 314 315 311 310 311 311 312 312 321 336 353 334 317 313 316 309 309 311 310 309 310 309 309 309 321 343 341 344 348 349 350 351 351 351 352 352 353 354 356 355 354 354 353 352 353 354 357 356 356 357 356 356 356 356 355 355 354 352 354 356 356 351 350 350 352 349
319 319 320 321 324 325 327 327 329 330 332 333 336 339 339 340 340 342 343 320 312 308 307 307 308 309 311 309 308 315 322 325 315 310 308 307 307 308 308 307 307 304 310 334 342 343 346 348 350 353 352 352 353 354 354 354 355 356 356 355 354 355 357 358 357 358 355 356 356 356 355 357 354 354 351 353 355 351 353 352 350 349 347 346 344
320 320 321 322 322 324 326 327 329 330 333 336 336 336 338 340 341 343 342 342 344 331 320 314 308 304 304 306 310 308 307 308 308 306 305 306 305 305 306 319 303 301 317 344 345 347 349 350 350 352 354 354 354 355 355 355 355 356 357 357 357 359 359 363 361 356 356 354 354 353 354 355 354 353 353 353 353 351 351 348 348 345 343 343 342
320 322 325 326 325 326 328 330 332 332 332 332 333 333 334 336 339 339 338 338 338 339 342 347 332 323 329 317 309 304 304 305 307 307 304 303 304 303 308 334 334 329 328 338 347 349 349 350 350 351 353 354 354 355 354 356 356 356 356 357 358 359 360 361 359 359 355 354 353 353 353 352 354 352 352 352 351 348 348 347 346 345 344 343 342
320 320 321 321 322 324 326 329 330 330 330 329 330 330 331 332 333 334 334 335 336 337 339 344 349 334 325 310 305 305 304 302 304 305 305 302 302 307 337 342 344 343 339 339 342 346 349 351 351 353 354 355 356 356 357 356 357 358 359 359 358 359 359 359 357 358 356 354 353 353 348 353 352 352 353 353 352 349 348 346 345 344 344 344 343
319 320 320 321 323 324 326 328 328 328 327 327 327 328 328 329 332 332 333 335 335 337 339 342 345 348 340 340 328 309 302 302 302 302 303 303 300 322 345 349 349 349 344 344 343 345 347 350 352 353 355 355 355 356 357 357 358 360 350 359 359 359 359 359 359 355 355 353 353 353 353 352 353 353 352 349 348 348 348 347 345 342 341 339 334
319 319 320 321 322 324 325 325 326 325 326 326 326 326 327 329 330 332 332 333 334 334 336 339 337 342 344 349 339 337 325 303 303 305 302 300 311 330 341 348 350 351 350 349 347 347 348 351 353 354 355 356 356 357 357 357 358 359 358 359 359 358 345 355 352 357 355 354 354 354 352 352 353 353 348 348 347 346 345 345 346 344 340 335 335
319 318 318 318 320 323 324 324 325 324 325 325 325 326 326 327 329 330 332 333 334 335 337 340 341 342 345 350 340 331 324 329 331 336 335 333 332 335 341 346 350 352 354 354 351 349 349 350 351 353 355 356 356 358 358 357 359 358 358 358 356 357 356 355 354 354 353 353 354 354 353 351 350 350 349 348 347 348 349 347 344 344 341 337 337
319 320 320 319 321 322 323 324 324 324 324 323 324 325 326 326 328 330 332 333 334 335 336 337 338 341 344 349 339 333 336 338 338 341 342 340 338 339 341 344 348 351 353 355 355 353 350 351 352 354 356 358 358 358 359 358 357 356 358 357 356 356 356 355 354 353 353 354 353 353 352 351 351 351 349 346 347 349 349 347 344 341 341 339 337
319 319 321 320 320 321 321 322 322 322 323 323 323 324 324 325 326 327 328 329 331 333 335 336 338 341 341 338 323 320 341 344 345 345 346 346 344 343 343 345 347 351 353 354 356 358 355 353 353 354 354 355 357 357 357 356 355 355 355 355 356 353 354 354 354 354 354 354 354 353 353 351 349 347 345 345 336 342 346 345 343 340 337 334 331
318 318 319 320 320 320 320 320 321 323 324 323 323 322 322 323 324 325 325 327 328 329 331 334 337 340 333 320 312 307 333 345 346 346 348 349 350 348 346 347 349 351 353 355 358 359 358 356 354 354 354 355 356 356 355 355 354 355 356 354 353 351 351 352 353 355 354 354 354 353 350 348 347 346 345 333 344 343 343 341 339 336 332 329 329
318 318 319 319 318 319 319 319 321 320 320 320 320 321 321 322 322 323 324 325 326 327 329 331 335 340 340 322 319 307 327 342 343 345 347 348 349 349 350 350 349 345 343 339 337 339 344 349 352 353 353 354 357 357 356 354 354 354 351 346 345 346 349 349 350 351 353 353 352 350 349 346 342 342 342 338 342 343 343 339 335 332 328 328 328
318 317 318 317 317 317 318 318 318 318 317 318 318 319 320 320 320 321 322 324 325 327 329 331 333 337 339 335 320 322 333 338 343 346 346 338 332 327 324 322 322 323 323 323 323 322 325 329 332 333 330 326 325 328 331 332 334 343 345 344 343 343 346 347 348 350 351 349 348 343 342 340 338 339 337 336 340 340 336 331 330 330 329 328 327
316 315 314 314 314 315 315 317 316 316 316 316 316 316 317 317 317 318 319 320 322 324 326 330 333 337 339 341 339 336 334 333 320 316 314 312 311 311 312 311 311 311 311 310 311 312 314 315 316 317 317 315 314 315 317 320 322 329 338 343 343 343 344 347 350 350 348 344 339 338 336 335 336 337 338 338 337 336 332 331 330 325 326 326 325
314 313 313 313 313 313 314 313 314 314 314 314 313 313 314 315 315 316 317 318 320 322 323 323 321 320 319 317 314 312 311 310 308 307 305 305 305 305 305 306 306 306 306 306 307 308 308 308 308 309 309 309 309 311 312 313 313 316 319 325 332 338 342 343 343 341 341 339 337 336 335 335 336 336 333 332 331 332 333 331 329 328 326 324 324
313 312 312 312 312 312 312 312 312 312 312 312 312 312 312 312 313 313 313 312 312 311 311 310 309 308 308 307 306 304 304 304 303 303 303 302 303 303 303 304 304 304 304 305 305 305 306 306 307 307 307 307 308 308 308 309 310 312 315 319 320 321 323 327 330 334 335 335 334 333 333 334 331 329 328 328 326 326 326 325 324 324 322 319 319
311 311 311 311 311 310 310 310 310 311 310 310 311 311 311 311 309 308 308 307 307 306 305 304 304 304 304 303 303 303 303 303 303 302 302 301 301 302 302 302 302 302 302 302 302 303 304 304 305 305 305 305 305 305 305 306 307 308 312 316 317 318 318 316 326 328 330 330 331 332 332 331 328 327 326 326 326 325 322 320 321 322 320 318 318
310 310 310 309 309 309 308 308 308 308 308 309 309 308 308 307 306 305 305 304 303 303 302 302 302 303 302 302 302 301 301 301 300 300 300 300 300 300 301 301 301 301 301 301 301 301 301 302 302 302 302 303 303 303 303 304 304 304 305 305 304 299 299 304 314 320 315 324 325 327 328 327 326 325 324 323 323 322 321 321 320 318 317 318 319
309 308 308 308 308 307 307 307 307 307 308 308 307 306 306 305 304 303 303 302 301 301 301 301 301 301 301 301 300 300 300 299 299 298 299 299 299 299 299 299 299 299 299 299 299 300 300 300 301 300 301 300 301 301 301 301 301 300 300 299 296 296 298 300 302 306 315 319 320 322 322 321 321 321 320 318 317 316 316 316 316 316 316 315 314
307 307 307 307 306 306 306 306 305 306 306 305 305 303 302 301 300 300 300 299 299 299 299 299 299 299 299 299 299 298 298 297 297 297 297 297 297 297 297 297 297 297 297 297 298 298 298 299 300 300 301 301 300 300 300 300 300 299 296 294 293 294 295 298 303 297 301 307 315 315 315 314 314 314 315 316 316 314 313 313 313 312 310 309 310
Wind_Speed
14 13 13 13 13 14 14 13 13 12 12 11 11 10 10 10 9 9 7 8 7 8 8 8 7 7 7 7 8 7 7 7 6 6 6 7 6 6 6 6 6 6 6 6 6 5 6 6 6 5 4 4 4 4 4 4 3 2 2 3 3 3 3 3 4 6 4 2 4 5 5 5 4 3 6 6 6 6 6 6 6 6 5 4 3
14 13 13 12 15 14 15 13 13 12 13 12 12 11 10 10 9 8 9 9 8 9 9 8 7 8 8 8 7 7 7 7 7 7 7 7 8 6 6 7 7 7 6 6 6 5 6 6 6 6 5 5 5 5 5 5 5 4 3 3 4 3 3 3 4 5 7 4 4 3 4 2 5 3 5 7 7 6 7 7 5 5 5 3 4
14 13 13 13 15 14 14 13 13 14 14 13 14 13 11 11 9 10 10 9 9 9 9 9 7 7 8 7 7 7 7 8 7 7 7 8 8 8 7 7 8 8 8 8 8 7 7 7 7 6 5 6 6 6 5 5 4 4 5 4 4 4 3 4 4 5 7 7 5 5 3 3 4 5 5 5 5 5 6 7 6 5 4 4 4
13 13 13 14 14 14 13 13 15 15 15 13 14 14 12 11 10 11 11 9 9 9 9 9 8 8 8 8 8 8 8 8 8 8 9 9 9 9 8 8 8 9 9 9 8 8 8 7 8 7 6 6 6 6 5 5 5 4 5 5 4 5 4 4 5 5 6 7 5 5 5 5 4 4 4 4 4 4 4 5 5 5 5 4 3
14 14 14 15 15 14 15 14 14 15 15 14 15 14 13 11 10 12 11 11 10 9 9 9 9 9 9 10 9 9 9 9 9 9 9 8 9 9 9 9 9 9 9 9 8 8 8 9 8 7 7 7 7 7 6 6 6 5 5 5 5 5 4 4 5 5 5 7 7 5 4 4 4 4 3 4 4 4 3 4 5 5 5 5 4
15 13 13 15 14 15 15 14 15 16 15 15 15 14 13 12 11 11 12 12 11 10 10 9 9 11 10 10 10 10 9 9 9 9 10 9 9 9 9 9 9 9 10 10 9 9 9 9 9 8 8 8 8 7 6 7 6 6 7 6 5 5 5 5 5 5 5 6 6 7 5 5 5 4 3 2 5 5 4 3 4 3 4 5 4
14 14 14 14 13 14 14 15 14 15 14 15 13 13 14 14 13 13 12 13 12 12 11 11 10 11 11 11 11 10 10 10 9 9 10 9 9 9 10 10 10 9 10 10 10 10 10 9 9 9 9 9 9 8 7 7 6 7 7 7 6 5 6 5 5 6 6 6 6 6 6 5 4 5 2 2 4 4 3 4 4 3 4 4 3
12 13 13 13 13 15 15 14 13 13 13 12 13 13 13 13 13 12 11 13 13 13 13 13 12 11 11 11 11 10 10 10 10 10 10 10 10 10 10 10 10 10 10 10 10 10 10 10 10 10 10 9 9 8 8 7 6 7 6 6 6 6 6 5 5 5 6 6 6 6 5 5 5 5 4 3 4 2 2 2 4 4 4 4 3
12 13 13 14 14 14 13 12 12 12 12 11 12 13 12 12 12 11 11 11 11 12 13 12 12 12 12 11 11 10 10 10 10 10 10 11 11 11 11 11 11 11 10 10 10 10 10 10 10 11 10 10 11 9 8 6 6 6 6 6 6 6 6 5 5 5 5 6 6 5 6 5 5 5 4 4 4 4 3 3 4 3 2 3 3
12 14 15 14 13 12 11 11 11 12 12 12 12 12 12 12 11 12 12 12 11 11 11 12 12 13 12 12 12 10 10 9 11 15 13 10 11 11 10 11 11 11 10 10 10 11 11 11 10 12 11 11 12 12 12 11 10 10 7 6 7 6 6 6 6 6 6 6 6 6 6 6 5 5 5 5 4 4 4 3 5 4 3 4 3
8 13 14 14 12 12 11 11 11 11 12 12 12 12 13 12 11 12 12 12 13 11 12 13 13 13 14 13 14 12 11 11 15 15 16 16 12 11 11 11 11 11 11 11 11 11 11 11 11 10 11 12 12 13 13 13 14 14 14 12 8 7 7 8 7 7 6 7 6 6 7 7 7 6 6 5 4 5 4 4 4 4 4 5 5
7 6 10 9 9 10 11 12 13 12 12 13 13 13 12 12 11 12 12 13 11 12 13 14 13 14 13 14 15 14 13 15 16 17 18 18 16 12 11 11 10 11 11 12 11 10 11 10 10 9 9 11 10 10 13 15 15 15 15 14 13 13 11 9 8 7 7 7 7 7 7 7 7 6 6 5 4 4 4 4 4 5 6 6 6
6 7 5 7 10 10 10 12 12 13 12 12 11 10 10 11 12 13 14 14 12 12 13 13 14 14 14 14 15 15 14 16 17 18 18 19 19 16 12 12 12 12 11 12 12 11 9 9 10 8 8 11 10 10 9 10 14 17 16 14 14 14 14 14 13 11 8 8 8 9 8 7 8 7 6 5 4 6 5 6 5 5 5 6 6
4 5 5 5 3 4 7 10 11 11 10 10 10 11 12 13 14 13 12 12 12 12 14 14 13 12 14 14 13 14 15 14 17 19 19 19 18 16 13 14 13 13 12 12 11 12 11 10 10 9 9 9 9 11 10 10 9 9 10 10 11 13 15 15 16 16 13 11 10 10 9 8 9 8 7 5 6 6 6 7 6 7 7 8 7
4 3 4 4 4 3 3 4 7 8 9 10 10 12 12 12 13 12 12 12 12 13 14 14 13 13 14 14 13 14 14 17 16 19 19 19 19 15 12 13 13 12 12 12 12 12 12 11 11 11 10 10 9 10 11 10 9 8 9 9 10 10 10 11 12 11 11 12 12 13 12 10 10 10 8 7 8 7 6 7 7 7 6 7 7
6 6 6 6 6 5 6 6 7 8 9 9 11 12 13 13 13 12 12 12 11 11 12 13 14 14 15 15 15 15 15 17 17 18 20 20 19 11 11 12 14 13 12 13 12 11 12 11 11 11 12 11 11 14 12 10 9 10 10 10 10 9 10 11 11 11 11 10 11 11 11 11 9 9 6 5 5 5 5 5 6 6 6 6 6
8 8 7 7 6 7 8 7 8 10 10 10 12 13 13 12 12 11 12 13 13 13 13 13 13 14 15 15 16 15 16 16 17 19 20 20 14 10 11 12 12 14 14 13 12 12 12 12 12 11 12 12 12 14 15 13 11 11 10 10 10 9 9 8 13 16 14 13 13 12 12 12 11 11 9 6 7 6 6 7 8 6 6 6 5
8 9 9 8 8 7 5 5 6 8 10 12 13 13 13 13 13 12 12 13 14 14 13 12 13 13 15 16 16 16 17 16 18 19 20 19 17 12 11 12 13 13 13 13 11 11 13 16 14 13 12 13 13 15 15 13 12 12 11 11 11 11 10 9 7 9 17 16 16 16 15 13 13 13 11 9 9 6 8 9 8 6 7 6 6
9 9 10 10 9 7 7 6 4 4 6 9 12 13 13 13 13 12 14 14 14 13 13 13 13 13 15 17 16 18 17 17 17 19 20 19 17 11 11 11 12 13 13 13 12 11 11 13 17 16 14 14 14 14 16 14 13 12 12 11 12 13 11 9 9 9 7 8 9 9 10 11 11 10 10 14 13 12 10 11 8 7 7 7 7
9 8 8 9 9 8 7 6 6 5 5 7 10 12 10 11 13 13 13 13 14 15 14 14 15 14 14 15 15 17 18 17 14 20 20 20 21 14 11 11 13 14 14 13 11 12 12 12 13 19 19 17 15 14 16 18 14 13 12 12 12 13 10 10 10 9 8 8 8 8 9 8 8 9 9 9 10 12 12 11 9 8 8 8 8
10 8 9 9 8 9 7 7 6 5 6 8 10 11 11 12 13 13 14 13 13 13 15 15 16 16 15 14 15 16 15 17 16 19 20 21 22 19 12 14 14 13 13 12 12 12 11 12 12 15 20 20 18 17 16 18 17 13 13 13 13 11 8 9 9 10 10 9 9 8 8 8 8 8 8 7 8 9 10 11 10 9 9 8 8
10 10 10 10 9 8 9 8 8 5 6 8 9 11 11 13 12 13 12 12 14 14 14 14 15 16 15 15 15 16 16 18 16 15 20 21 22 25 15 16 15 13 13 12 12 13 13 12 11 13 18 20 20 19 18 17 19 12 14 16 15 13 11 9 8 7 8 8 8 8 8 8 8 8 8 8 8 8 9 9 10 10 10 9 9
11 10 10 9 9 9 9 10 9 6 6 8 10 10 9 10 12 11 10 11 12 14 14 14 15 15 16 17 16 15 15 13 18 15 18 21 22 23 25 19 16 14 14 14 14 14 13 13 13 14 16 18 19 19 18 19 14 13 19 17 15 16 12 9 9 9 9 11 10 9 8 8 9 8 8 8 8 8 8 8 9 9 9 9 10
11 11 10 9 10 9 9 10 9 10 9 9 9 9 7 7 7 5 9 10 10 11 12 13 15 15 17 18 17 17 15 14 13 19 16 21 21 24 25 25 19 14 15 14 14 14 13 13 12 15 16 17 18 17 18 17 14 18 19 19 17 13 8 9 8 10 11 12 12 12 11 9 9 9 8 8 8 8 8 8 8 9 9 8 9
10 10 10 10 10 10 10 9 9 9 11 10 9 7 7 4 4 7 10 9 10 12 12 12 14 14 16 17 18 17 16 15 12 14 20 19 22 23 24 24 23 19 16 16 15 15 14 15 14 14 15 16 17 17 15 16 20 19 19 18 14 8 9 9 10 9 12 13 13 12 11 10 9 9 8 7 7 6 6 6 6 6 6 7 7
10 11 10 9 10 11 12 12 9 9 11 9 9 8 6 5 7 9 12 13 11 12 12 12 13 14 15 17 18 17 14 13 13 12 12 17 17 22 23 23 23 22 21 18 20 19 15 13 15 15 15 14 11 8 8 11 17 20 19 15 9 10 10 10 10 11 13 12 13 12 11 9 8 8 7 6 6 7 7 7 7 8 8 10 9
10 10 10 9 9 10 12 11 9 9 10 11 9 8 7 7 8 9 9 12 13 13 13 13 14 15 16 17 17 15 15 13 12 12 12 10 10 11 13 13 17 17 15 15 16 12 14 12 10 11 11 14 15 14 15 14 12 11 9 10 11 10 11 11 11 11 11 11 11 11 10 9 7 6 6 7 8 8 8 8 8 8 9 9 11
10 10 11 10 9 9 9 14 14 9 9 9 10 9 7 7 8 10 10 11 12 13 13 15 15 17 16 16 15 15 15 12 13 13 13 11 9 9 10 10 11 12 13 13 12 14 13 12 12 9 8 7 8 8 10 10 10 10 9 9 10 11 12 13 11 11 10 10 10 9 9 8 8 8 8 8 8 8 8 8 8 9 10 10 11
10 11 11 10 10 9 9 10 10 9 9 9 9 9 9 8 8 8 8 8 10 12 14 15 15 16 15 15 15 15 13 13 14 12 11 11 11 10 12 13 12 12 17 17 11 9 9 10 11 11 10 11 10 11 11 10 11 11 12 10 10 10 10 10 11 12 12 11 11 11 12 10 9 8 7 7 8 8 7 10 10 10 10 11 13
10 10 9 9 10 10 9 9 10 9 10 9 9 10 12 14 12 11 12 12 13 15 13 15 16 15 14 16 16 16 14 12 6 10 14 14 15 16 14 13 15 13 14 15 11 8 9 12 13 13 13 12 13 13 13 12 11 12 11 12 11 11 11 11 12 12 10 11 11 10 10 9 12 10 10 12 11 11 10 9 11 11 11 11 13
9 8 8 9 10 11 10 10 10 10 10 10 9 10 11 11 14 18 18 16 16 17 18 21 23 22 15 13 13 16 17 14 5 8 12 15 16 16 17 16 16 17 12 10 7 9 9 11 13 14 13 14 14 14 13 13 12 12 12 11 12 12 12 12 12 11 11 11 11 11 10 11 13 10 11 12 12 11 10 8 10 9 11 11 12
10 9 8 8 10 10 10 11 10 11 10 9 9 9 10 11 13 12 17 18 18 19 21 22 24 22 23 21 16 14 14 13 16 11 13 14 16 17 17 17 16 13 14 17 6 14 14 13 12 13 13 13 13 12 13 13 12 11 11 12 12 13 13 13 11 10 11 11 11 11 11 13 12 11 12 12 10 11 10 8 10 11 12 11 12
12 10 8 8 9 11 10 9 9 9 11 11 11 9 11 12 12 14 11 10 15 16 17 19 21 24 24 23 23 22 22 14 11 14 14 14 14 16 16 16 15 10 17 14 15 13 13 13 12 11 11 12 12 12 12 13 13 12 12 13 13 12 12 12 11 11 12 12 11 11 11 11 10 11 10 10 8 12 10 10 10 10 9 10 10
14 11 8 8 8 9 9 9 9 10 10 10 10 10 11 12 12 12 12 14 15 13 13 16 17 19 22 25 24 21 22 23 18 12 11 14 14 14 13 6 5 12 14 12 12 13 11 12 12 12 11 11 11 11 12 12 12 12 12 12 12 11 11 10 11 11 11 11 12 13 12 11 11 13 13 12 11 11 10 11 11 10 9 10 10
12 13 18 14 9 9 9 9 9 10 11 11 10 10 10 10 10 10 10 11 12 11 13 14 15 10 10 13 18 20 19 18 18 16 10 10 10 7 8 4 4 5 7 9 10 11 12 12 12 12 12 12 12 12 12 12 11 12 12 11 11 11 10 10 11 11 11 12 15 15 15 14 15 14 14 12 11 11 12 11 11 12 12 11 10
12 11 9 10 9 8 9 9 9 10 9 10 10 10 10 10 10 10 10 11 12 12 13 12 12 16 18 13 13 11 10 13 15 14 11 9 11 16 8 8 9 9 9 11 12 12 12 12 12 12 11 12 11 11 11 11 11 12 11 11 11 11 11 11 10 10 11 14 14 14 13 13 14 13 13 12 13 13 12 12 12 12 13 12 11
12 11 9 8 7 8 9 10 12 11 10 10 10 11 11 11 11 12 11 10 11 10 12 12 12 12 9 8 9 7 8 9 12 13 13 12 17 13 11 11 11 10 10 11 11 11 11 12 12 12 12 12 12 11 11 11 11 11 10 11 10 10 11 11 11 10 12 14 14 13 14 14 13 12 11 12 11 12 12 12 12 11 11 12 9
13 10 9 9 8 9 9 10 11 11 11 11 11 10 10 10 11 11 11 12 12 12 11 10 10 10 12 10 2 3 2 4 5 3 5 7 8 9 11 11 12 12 12 11 11 12 13 13 12 12 13 12 12 11 11 11 11 11 10 10 10 11 13 10 10 11 13 13 14 13 10 11 12 11 10 13 12 12 12 12 11 10 10 10 10
11 13 14 15 13 10 10 11 11 11 11 10 9 9 10 12 12 12 11 11 11 11 10 9 9 10 10 7 1 2 5 1 3 5 6 7 9 10 11 13 14 14 14 13 11 11 12 12 12 11 12 11 11 10 10 11 10 10 10 10 12 10 11 11 13 13 14 15 13 12 13 13 12 12 12 12 13 13 13 12 12 11 10 11 12
11 10 9 12 10 10 9 11 11 10 11 11 11 10 10 11 12 12 12 11 10 10 11 11 11 9 7 6 3 4 6 6 7 8 8 8 9 10 10 11 12 13 13 12 11 11 12 12 11 10 11 10 10 10 9 9 10 10 10 11 12 12 13 11 12 12 14 14 13 12 12 12 11 9 11 11 12 13 13 13 12 11 11 9 8
10 11 11 9 10 10 11 10 9 10 11 11 10 10 10 10 11 12 13 12 10 10 10 11 11 8 7 9 7 11 8 8 7 7 9 9 8 9 10 10 11 12 12 12 11 10 11 11 10 10 11 10 10 10 10 9 10 10 10 9 9 10 11 13 13 13 13 11 12 12 8 9 10 11 11 10 11 12 13 10 9 8 7 9 11
11 10 10 10 9 10 10 9 10 12 11 10 9 10 10 10 10 11 13 12 10 10 11 11 11 9 7 11 12 15 10 8 8 8 8 9 9 9 8 8 9 9 9 9 8 6 6 7 8 9 10 10 9 9 9 9 10 11 6 3 6 10 12 11 10 9 10 10 9 10 10 11 10 10 11 9 11 13 11 7 7 6 6 8 10
11 11 11 9 10 9 9 9 9 10 10 10 10 10 10 10 10 10 11 11 9 9 11 12 11 9 9 8 11 12 9 9 9 9 9 9 9 8 7 6 4 3 2 2 3 2 3 4 6 8 9 8 6 6 8 10 9 7 5 7 11 13 11 10 9 9 9 9 11 11 11 10 10 9 9 10 12 12 11 8 8 8 9 11 10
11 11 10 10 9 8 9 10 10 9 9 10 11 10 9 8 9 9 11 11 9 8 9 11 12 11 12 8 8 6 7 8 10 10 8 2 1 2 2 3 3 3 3 3 3 4 3 3 3 3 4 3 3 3 3 3 2 5 9 11 11 11 11 11 11 11 10 10 8 8 8 8 9 9 10 11 12 10 7 8 9 10 10 9 9
11 9 9 10 9 8 9 9 9 9 9 8 8 8 9 9 8 9 10 11 9 8 9 11 11 11 12 10 8 7 5 2 4 6 6 5 4 5 5 5 5 4 4 4 5 5 5 4 4 3 3 3 3 3 2 1 2 4 5 9 11 11 12 13 10 7 6 7 7 8 8 9 8 10 11 11 9 9 8 9 9 8 8 7 9
9 9 9 9 8 9 8 8 8 8 8 8 8 8 8 8 7 8 8 8 7 7 7 6 3 4 4 4 5 5 5 6 6 6 6 6 5 6 6 6 6 6 6 6 6 6 6 5 5 4 4 4 5 5 4 3 3 3 3 4 7 10 8 4 3 5 8 9 8 9 9 8 9 8 8 7 7 8 9 8 8 8 8 7 7
9 9 9 8 8 8 8 8 8 8 8 8 8 8 7 7 7 7 6 5 5 4 3 2 2 3 4 6 6 7 7 7 7 7 7 8 7 6 7 7 8 8 8 8 8 8 7 7 6 6 6 6 7 7 6 5 4 4 4 5 5 3 2 3 4 4 5 6 7 6 8 9 9 8 10 8 8 8 8 7 8 8 7 7 7
8 8 8 8 8 7 7 7 8 9 8 7 7 6 6 5 4 4 4 4 3 3 3 4 4 5 6 6 7 8 8 8 8 8 8 8 8 8 9 9 10 9 9 9 9 10 10 9 9 8 8 8 8 7 7 7 6 6 5 5 5 5 3 2 2 3 4 4 5 7 9 10 10 11 9 7 8 8 7 6 6 6 7 8 7
7 7 6 6 6 6 6 6 6 6 7 6 6 5 3 1 2 2 3 3 4 4 4 5 5 5 6 7 7 8 9 9 9 9 8 9 10 10 10 11 11 11 11 10 11 11 11 11 10 9 8 7 7 8 7 7 7 7 7 6 8 11 12 10 6 5 6 6 5 6 8 10 11 10 8 9 8 7 7 7 7 7 6 6 6
4 3 4 5 4 4 4 5 5 5 5 5 4 2 1 2 3 3 4 5 5 5 6 6 6 6 7 7 8 8 9 9 10 10 9 9 9 11 12 12 13 12 11 11 10 10 10 10 11 11 11 10 9 9 10 9 9 8 6 8 14 15 14 14 14 12 8 6 7 7 7 8 8 9 9 10 10 10 10 10 10 10 10 9 8
2 2 2 3 3 3 4 4 4 4 4 3 2 2 3 4 4 4 5 5 5 6 7 7 8 8 8 8 8 9 9 9 9 10 11 11 9 10 12 13 13 13 12 11 10 10 11 10 11 11 11 12 12 11 11 10 8 8 12 18 18 17 17 15 13 15 17 12 9 8 8 9 9 9 8 8 9 10 11 11 10 10 10 10 9
Wind_Direction
194 193 193 197 195 195 197 197 202 203 207 202 204 205 203 205 205 210 193 201 195 200 206 209 207 208 212 209 209 204 202 204 205 208 214 223 229 233 234 215 215 223 225 224 223 221 222 225 226 228 226 239 239 243 243 238 233 238 215 212 221 201 221 234 276 290 291 261 281 298 321 322 325 326 328 336 342 349 333 344 338 353 353 0 23
196 192 192 195 198 199 202 201 200 202 205 205 207 206 205 203 201 194 202 202 198 205 207 210 211 211 213 211 209 208 203 201 207 209 215 223 229 228 228 222 220 225 224 226 219 221 219 224 230 225 209 231 241 240 241 243 241 244 224 233 247 236 205 251 267 283 296 294 286 303 304 295 312 325 333 332 339 337 337 340 348 354 355 352 340
197 192 192 194 197 199 200 200 197 200 204 208 211 212 207 206 196 199 209 207 200 208 206 211 208 210 218 215 207 210 205 206 206 208 213 219 227 234 234 227 226 226 224 225 226 220 221 223 231 229 216 223 228 243 243 245 252 257 259 249 252 257 212 219 256 277 293 300 302 301 308 310 305 318 323 322 316 316 323 342 344 353 354 346 351
204 197 196 200 200 198 200 202 202 202 206 210 213 212 212 206 196 203 207 209 202 202 205 205 204 208 218 220 215 213 209 209 208 208 211 215 222 227 231 233 235 233 232 231 228 223 227 229 235 232 225 228 235 241 238 238 239 239 245 237 236 249 241 211 228 261 283 291 300 300 313 311 305 305 312 307 307 322 326 326 328 346 347 344 347
204 205 202 204 202 203 205 204 205 206 209 211 213 211 211 207 199 204 207 212 210 200 198 200 202 205 215 218 217 214 214 212 212 215 215 216 219 225 228 231 234 236 236 233 229 228 230 235 238 232 224 235 240 240 241 232 237 240 243 239 235 236 231 228 232 234 255 274 290 293 293 285 284 290 297 318 322 313 307 308 332 336 340 345 344
209 204 203 204 205 207 207 207 208 208 209 211 212 211 210 209 205 200 205 207 205 206 199 200 203 207 212 215 214 213 212 213 214 217 219 218 218 222 225 228 232 235 237 236 233 228 232 234 236 232 231 232 240 241 236 234 233 235 239 237 235 232 234 233 230 234 245 262 276 289 284 295 300 296 298 308 316 319 314 310 301 338 339 350 4
199 203 201 204 208 210 209 208 208 210 209 211 212 210 210 210 208 206 203 206 204 207 205 202 203 209 212 213 216 213 210 212 214 215 219 221 220 221 226 227 231 233 236 238 239 234 232 233 233 232 234 234 237 237 231 228 229 236 233 234 233 229 235 237 229 235 245 259 268 271 280 277 272 293 279 268 282 269 296 318 324 348 342 340 348
194 198 199 202 205 209 213 211 210 211 211 209 209 211 211 211 210 209 203 203 207 209 208 204 204 209 214 215 217 214 210 211 211 214 216 217 218 221 222 227 231 232 235 237 239 240 237 235 235 231 230 230 233 236 234 232 225 233 231 228 229 230 242 243 238 242 249 256 262 274 275 281 276 267 268 256 276 266 248 307 311 323 336 327 329
200 197 199 202 205 206 207 209 209 207 207 206 207 210 212 211 209 205 202 206 211 213 213 212 209 210 215 215 217 216 217 217 215 212 213 214 218 222 222 223 226 230 233 237 236 236 239 240 238 236 226 222 223 230 238 234 237 239 234 221 225 230 236 243 243 246 248 254 261 256 261 264 269 273 277 274 283 302 304 287 289 286 290 308 326
200 208 206 205 206 202 197 200 207 206 203 208 209 210 212 210 207 206 209 209 210 210 211 211 213 212 213 214 215 217 218 221 215 209 209 213 214 219 221 222 224 227 229 232 236 235 237 239 241 234 225 212 212 218 224 228 231 246 249 227 220 224 230 237 239 239 245 251 254 257 262 265 269 269 276 276 278 269 273 267 290 309 289 303 299
254 208 213 212 207 201 195 202 208 207 206 207 208 209 212 212 211 210 209 207 208 203 204 210 215 218 217 215 215 217 220 222 215 207 210 215 219 221 220 221 219 221 225 227 233 236 237 236 241 230 217 223 222 214 217 218 223 229 238 246 246 236 235 235 239 238 242 249 252 251 256 264 265 270 268 277 278 280 283 283 285 292 299 312 317
342 268 233 217 208 204 203 206 207 211 209 211 211 209 208 208 211 210 213 215 209 210 211 213 214 217 218 218 219 219 222 220 212 208 210 213 216 224 227 227 226 223 224 227 230 232 234 235 233 235 229 227 229 214 210 215 218 224 228 231 233 236 239 242 244 244 240 247 249 250 259 257 262 259 265 268 275 280 278 275 267 278 292 293 300
344 340 319 243 222 212 209 208 209 212 211 211 211 211 212 214 214 214 215 216 216 213 216 215 214 215 219 219 221 222 226 217 210 210 211 211 212 217 231 233 229 228 225 223 226 228 228 230 234 230 235 217 222 231 230 215 211 219 225 225 230 229 230 234 240 245 254 251 251 253 245 256 259 258 253 260 268 276 277 278 270 269 262 272 281
337 305 317 330 323 256 229 223 220 217 214 211 209 210 212 216 221 223 221 213 210 212 216 221 221 219 220 223 224 226 228 220 207 210 212 212 211 209 228 233 234 233 229 226 224 225 223 224 226 229 230 224 219 224 228 231 228 214 215 221 228 225 221 226 231 234 238 247 251 252 248 239 251 255 254 245 248 262 275 280 283 282 281 281 288
354 347 307 299 287 298 297 255 243 234 225 219 216 214 214 218 219 221 223 219 213 211 216 219 221 221 223 225 229 231 232 225 206 207 210 211 210 204 223 230 236 237 232 228 227 225 223 222 223 231 232 226 219 214 224 226 227 229 230 229 228 232 226 220 220 223 222 228 235 243 249 248 250 255 254 247 247 252 259 270 280 279 282 288 272
0 14 13 5 348 311 273 258 256 253 243 233 227 222 219 216 216 214 220 227 228 227 221 219 220 220 222 226 230 234 237 223 207 206 208 210 205 202 217 224 230 236 235 231 229 226 225 223 224 227 231 232 214 199 213 228 231 232 232 235 239 237 235 227 224 225 231 228 228 238 245 248 251 257 271 276 261 256 263 259 264 256 248 256 261
357 359 359 3 355 350 336 303 268 255 251 247 241 236 230 225 221 217 221 225 229 228 226 222 222 224 223 222 225 233 238 225 207 207 207 207 196 208 213 220 225 230 234 234 230 228 226 223 222 227 229 229 216 191 204 211 233 236 237 239 241 242 240 229 207 215 225 236 246 251 256 261 262 261 257 254 254 273 269 269 256 239 249 252 250
348 347 343 346 341 335 324 323 328 304 276 257 250 248 245 242 240 231 226 223 228 231 229 230 227 225 224 223 222 226 235 229 207 208 206 200 194 204 209 215 224 226 233 232 231 228 226 221 222 225 229 231 213 190 195 198 224 232 235 239 240 241 239 237 228 206 214 225 230 237 243 249 253 257 255 234 214 217 227 242 248 251 251 246 252
344 338 332 332 329 320 315 316 304 299 299 282 267 256 248 246 246 241 239 236 234 233 232 234 232 228 228 227 219 223 235 235 208 205 205 198 195 211 211 215 221 226 228 231 227 229 231 222 218 223 227 230 217 192 190 193 219 227 229 235 240 242 241 233 233 232 204 208 226 230 240 237 237 237 235 220 201 203 219 233 247 241 244 247 251
330 328 322 322 321 319 311 307 307 310 300 293 279 263 253 251 246 241 242 243 245 244 240 236 234 233 231 229 228 223 232 238 215 200 201 196 195 205 213 212 221 223 224 227 229 228 229 232 217 213 222 228 224 203 192 196 214 226 228 233 238 241 241 237 231 235 231 227 237 222 229 229 215 211 221 212 194 204 212 220 227 229 231 243 247
327 330 323 321 320 310 297 286 289 298 303 294 290 270 250 239 241 240 240 240 240 241 242 244 244 243 237 235 235 231 230 232 226 195 199 194 196 200 213 216 219 221 222 221 227 231 231 228 236 207 208 218 222 216 201 201 210 223 226 233 233 239 243 245 239 217 237 242 241 242 243 237 233 231 223 214 204 197 205 212 217 216 220 234 246
321 323 324 322 316 309 303 294 283 258 246 245 250 258 251 242 238 237 238 239 239 240 241 244 247 248 247 241 238 237 231 224 235 198 195 194 195 198 212 220 216 218 220 226 226 231 232 231 230 211 200 210 216 218 210 203 210 218 230 232 236 236 239 242 251 246 240 237 241 242 240 238 237 234 231 225 219 210 211 210 207 212 215 226 232
319 318 318 314 313 307 302 298 296 272 241 240 250 253 255 254 245 239 234 235 236 235 233 236 241 247 250 250 248 242 238 230 217 219 194 194 193 199 209 219 207 210 223 226 227 230 228 229 230 215 202 206 211 215 213 210 207 221 231 234 233 235 236 244 249 248 249 253 250 244 241 242 243 238 230 228 228 219 220 220 209 205 215 222 228
314 315 316 312 307 301 296 295 294 293 279 258 246 248 247 262 280 240 237 241 248 246 242 235 239 245 248 247 248 247 242 240 213 210 204 191 196 199 206 216 213 213 219 231 231 231 230 226 225 215 207 206 209 211 213 207 212 219 225 230 233 234 235 239 236 241 248 251 251 252 250 242 240 237 232 226 232 215 218 220 215 211 214 219 219
313 311 312 310 305 303 302 298 299 298 296 282 267 259 260 248 276 273 253 234 231 242 247 243 240 241 243 244 246 245 243 239 236 205 204 195 197 201 206 210 216 214 219 229 233 234 230 225 221 214 211 209 208 211 216 214 216 221 221 223 224 229 227 229 235 236 245 248 249 249 247 238 237 237 231 230 227 221 216 223 223 221 215 224 233
308 310 308 305 305 307 306 305 303 300 294 273 256 257 253 221 212 220 244 249 238 233 236 239 242 242 243 243 244 243 237 235 231 225 196 203 201 202 203 206 211 213 219 229 228 230 231 221 216 215 215 213 205 207 211 211 214 219 222 217 215 221 222 222 223 229 240 242 244 241 237 239 238 236 225 215 220 224 218 219 216 214 220 230 230
302 302 303 305 302 300 302 300 306 303 296 292 277 255 245 241 237 223 209 243 245 240 238 238 240 239 243 245 244 243 239 233 232 231 222 203 200 196 200 211 214 216 222 234 236 235 234 231 226 218 223 211 209 212 218 221 213 215 217 210 213 215 213 215 218 218 223 229 232 235 238 240 240 227 210 213 222 222 216 216 219 228 222 222 231
297 298 299 296 290 290 293 292 292 286 285 283 283 280 268 258 249 243 230 228 239 243 243 241 239 240 241 242 242 242 239 233 229 227 223 217 203 179 182 190 194 199 214 222 220 225 230 224 225 228 221 220 217 226 227 224 218 209 207 204 209 214 220 221 223 230 230 230 237 243 247 237 231 227 228 228 229 223 217 221 217 226 231 225 227
291 292 293 293 290 286 279 280 279 282 281 278 274 272 274 271 270 272 253 244 244 248 252 250 246 248 247 249 247 242 233 230 228 220 220 217 210 207 193 199 198 201 210 204 201 214 219 225 225 220 216 219 221 222 223 218 218 217 214 207 206 207 210 210 215 222 225 226 229 234 240 233 232 226 225 235 236 234 225 238 231 226 226 226 232
287 288 292 291 288 286 281 280 283 281 279 278 284 281 259 245 253 262 270 263 254 254 251 256 258 261 258 252 249 246 236 234 240 195 205 204 207 212 219 212 206 213 211 191 203 218 213 224 226 227 226 220 222 224 224 223 219 216 216 208 210 213 211 210 215 219 213 214 219 219 224 229 241 232 239 245 249 246 236 221 231 227 226 223 233
280 282 289 290 289 288 286 285 283 283 283 283 284 288 296 279 239 239 247 254 260 264 260 256 258 255 254 265 259 250 259 278 287 200 198 205 212 215 221 225 211 212 160 126 190 226 235 227 228 228 227 229 226 221 222 223 221 218 217 210 211 214 213 216 215 213 211 211 216 222 222 228 238 227 236 237 240 241 233 205 227 227 226 225 229
275 278 281 284 287 282 278 278 280 283 284 283 282 284 284 285 289 248 229 239 245 242 246 249 252 251 246 243 250 268 262 247 247 224 204 207 212 215 219 223 224 205 156 133 176 229 227 229 228 227 223 224 222 221 222 224 224 219 218 218 217 214 211 216 203 202 213 217 219 219 221 229 231 230 234 233 225 228 224 208 215 220 222 222 226
268 272 273 279 280 279 279 276 276 277 282 282 281 280 281 284 284 298 290 229 226 236 247 247 247 252 253 252 247 244 251 262 253 232 217 213 212 215 218 219 222 169 132 162 210 220 224 223 229 228 223 225 222 220 219 223 226 223 220 222 223 217 213 213 196 211 218 220 220 223 220 220 223 232 225 221 204 224 220 215 210 214 214 216 223
271 268 263 261 265 269 271 270 265 265 267 277 288 290 288 285 289 293 298 308 308 293 263 246 232 220 227 237 245 240 239 242 250 250 229 221 214 213 209 209 117 162 182 196 201 219 219 223 225 227 226 226 224 221 220 222 224 227 227 227 227 224 219 204 200 208 213 216 229 236 231 225 222 228 227 223 219 220 220 216 211 207 207 211 218
269 264 265 269 267 268 269 270 275 281 287 287 284 284 280 284 289 288 288 291 293 293 302 305 301 290 253 230 216 218 221 229 231 232 224 219 217 176 128 140 166 198 223 234 221 220 222 221 225 223 224 225 224 221 223 221 221 223 227 228 227 224 220 211 208 204 210 225 234 236 237 235 233 229 230 225 218 212 216 213 211 207 208 208 210
267 265 262 265 268 268 269 268 271 275 280 282 281 279 280 283 279 278 279 276 277 282 287 285 293 305 301 287 281 272 245 231 236 232 218 194 165 146 180 209 211 207 204 208 216 220 222 224 225 227 224 228 226 225 223 224 221 222 223 224 224 221 219 220 214 206 209 230 233 231 228 228 230 227 227 227 223 220 216 212 212 211 211 211 206
264 265 265 260 255 259 263 271 277 281 282 282 281 280 280 278 274 275 275 269 268 269 274 282 292 287 282 283 291 264 240 237 238 235 217 188 170 177 212 211 215 208 207 210 209 217 218 224 224 226 226 224 224 223 222 223 224 223 223 224 223 220 223 221 218 214 224 226 229 226 224 227 225 222 220 225 223 223 221 219 218 213 211 213 204
264 262 258 258 255 255 264 272 277 273 270 269 269 270 270 265 266 266 268 271 273 276 276 278 273 273 284 288 191 268 49 65 83 102 123 127 160 204 215 226 223 219 213 211 203 206 215 221 220 221 226 226 226 224 221 225 220 221 221 216 214 223 221 217 207 216 226 234 235 231 222 226 224 220 211 221 220 217 218 220 221 220 212 206 204
268 259 251 254 256 262 267 273 273 273 270 263 260 263 267 271 271 269 266 265 269 269 270 270 264 270 271 283 168 102 92 173 217 231 212 206 201 204 213 216 221 224 226 220 203 203 217 220 220 219 222 224 225 221 220 222 219 222 224 228 231 230 221 225 232 224 225 231 233 231 225 222 217 215 209 211 219 224 227 222 217 218 211 201 204
270 271 259 248 259 259 262 265 270 269 267 267 262 257 260 263 266 265 264 265 264 266 268 265 265 261 265 268 177 166 209 214 209 221 218 210 210 211 217 223 224 227 226 224 218 212 214 222 220 217 219 221 225 227 221 223 225 226 223 226 231 235 241 235 230 228 228 229 229 228 225 221 216 209 207 209 217 223 226 222 214 206 207 195 167
272 271 270 265 263 271 273 270 266 262 263 260 258 261 263 266 271 274 274 270 269 272 265 266 265 262 250 252 211 188 218 230 227 218 223 216 212 212 216 221 225 228 230 230 227 220 217 222 224 225 231 228 228 227 225 221 224 224 225 232 239 244 246 244 237 233 232 225 226 229 217 206 206 203 202 203 208 216 223 216 210 201 180 158 179
273 271 272 271 263 268 270 272 270 271 269 266 268 268 269 267 267 270 271 272 269 267 271 271 269 263 256 224 210 204 215 238 241 243 241 239 238 227 210 216 224 230 236 238 235 229 226 224 227 230 230 227 224 224 223 223 227 235 220 251 281 270 255 245 239 226 226 226 217 219 214 207 196 196 200 199 207 218 220 211 208 186 152 167 179
274 277 277 276 276 273 273 273 276 274 270 270 270 271 270 270 273 273 270 268 267 271 277 276 274 267 260 223 222 215 219 237 245 246 246 240 241 246 246 243 241 254 284 359 12 335 289 258 243 238 240 244 243 237 229 233 231 218 162 185 220 229 235 231 228 222 213 212 218 211 204 188 184 190 194 196 213 218 216 195 175 166 173 182 182
276 279 278 281 280 280 278 277 274 269 267 269 274 275 274 274 274 273 276 277 273 271 269 266 266 262 258 222 202 217 230 232 239 245 251 259 45 41 30 28 18 17 14 15 16 5 339 314 309 336 2 8 10 4 351 359 24 189 199 219 225 232 237 239 231 225 213 205 193 182 178 174 178 189 194 199 211 216 193 170 170 177 182 182 172
280 277 277 278 276 273 275 275 275 276 276 277 274 272 274 276 272 274 275 275 278 278 270 271 273 265 254 241 217 222 235 272 17 36 35 29 28 30 25 25 29 26 26 22 16 10 12 12 4 2 350 12 9 5 359 296 248 239 239 235 235 232 234 235 237 232 210 189 170 170 169 166 182 194 199 202 204 200 189 188 181 176 177 178 180
271 271 273 275 276 277 280 280 279 278 278 276 275 273 275 274 274 274 275 280 284 284 276 285 322 349 7 42 57 63 73 75 65 56 54 52 46 43 41 39 38 39 37 33 30 33 33 30 26 22 16 14 12 14 10 355 330 300 281 257 235 233 233 217 188 176 187 183 176 174 174 178 191 196 182 169 175 186 190 177 168 166 167 164 170
270 269 271 273 273 280 283 285 283 280 281 277 275 277 278 279 287 291 297 323 331 325 328 357 27 47 58 66 68 69 69 72 70 68 67 65 63 56 54 52 51 50 47 44 42 44 45 46 42 40 34 33 29 29 24 16 343 316 287 282 287 295 275 231 216 186 170 177 167 154 163 172 168 156 157 150 149 149 140 143 139 131 125 135 128
268 268 267 272 276 278 283 286 284 285 282 279 280 280 278 286 302 323 332 340 360 22 37 47 58 67 73 72 74 77 78 79 80 79 76 72 72 71 69 67 65 60 59 54 49 48 46 46 44 42 42 41 40 33 32 25 16 9 355 346 346 335 346 2 100 113 158 155 152 140 139 150 155 150 144 134 140 129 119 115 126 120 121 127 133
270 274 282 283 283 285 289 293 296 290 282 281 272 267 277 318 24 25 33 35 43 56 64 67 73 75 79 81 82 83 83 84 83 82 81 81 79 76 76 73 72 69 66 61 58 54 54 50 48 46 41 37 36 36 28 27 30 24 22 13 13 28 39 42 60 73 83 84 89 104 117 135 139 136 124 123 121 117 110 108 103 97 86 84 95
278 293 295 299 304 309 300 299 296 289 286 268 247 217 84 74 62 70 75 79 71 68 74 76 77 79 87 88 85 86 88 88 87 85 80 75 75 82 80 76 72 68 64 62 58 54 54 51 50 50 47 45 44 41 42 41 39 38 28 34 46 50 54 54 48 51 62 70 77 87 91 95 101 112 107 105 106 101 95 97 102 101 98 81 61
355 18 351 328 324 326 335 322 312 298 274 242 206 111 83 70 57 53 57 56 61 68 74 75 77 78 78 79 81 80 81 80 81 84 85 82 79 79 80 80 78 73 67 61 56 53 53 54 56 56 54 53 49 47 45 42 34 27 49 54 51 51 54 58 59 54 58 61 58 50 58 70 83 93 93 94 99 102 107 108 107 106 103 99 89